C/2024 E1 ( Wierzchos )

Japanese version
Home page
Updated on September 4, 2024

---------------------------------------------------------------------

* Profile

Discovery Date March 3, 2024
Magnitude 20.4 mag
Discoverer Kacper W. Wierzchos (Mt. Lemmon Survey)

* Pictures

* Orbital Elements

Epoch 2024 Oct. 17.0 TT = JDT 2460600.5
T 2026 Jan. 20.77914 TT                                 Rudenko
q   0.5655206            (2000.0)            P               Q
z  -0.0000172      Peri.  243.65145     +0.35492497     -0.17082405
 +/-0.0000113      Node   108.09563     +0.02269525     +0.98444957
e   1.0000097      Incl.   75.23592     -0.93461928     -0.04096576
>From 277 observations 2024 Feb. 15-Aug. 11, mean residual 0".4.

* Finding Charts

* Magnitudes Graph

        m1 = 7.0 + 5 log d + 10.0 log r

---------------------------------------------------------------------

The orbital elements are published on M.P.E.C. 2024-Q20.
The charts are made with StellaNavigator Ver.11 (AstroArts).
The magnitudes graphs are made with Comet for Windows.

---------------------------------------------------------------------

Copyright(C) Seiichi Yoshida (comet@aerith.net). All rights reserved.